Weather History for Olive Branch, MS

Change the Weather History Date:

Monday, April 22, 2013

  Actual Average (KMEM) Record (KMEM)
Temperature  
Mean Temperature 58 °F 65 °F  
Max Temperature 71 °F 75 °F 90 °F (1980)
Min Temperature 44 °F 55 °F 39 °F (1993)
Degree Days  
Heating Degree Days 8 3  
Month to date heating degree days 118  
Since 1 July heating degree days 2926  
Cooling Degree Days 0 3  
Month to date cooling degree days 48  
Year to date cooling degree days 68  
Growing Degree Days 8 (Base 50)    
Moisture  
Dew Point 46 °F    
Average Humidity 76    
Maximum Humidity 100    
Minimum Humidity 43    
Precipitation  
Precipitation 0.00 in 0.19 in 2.11 in (1974)
Month to date precipitation 4.01  
Year to date precipitation 17.54  
Snow  
Snow 0.00 in 0.00 in - ()
Month to date snowfall 0.0  
Since 1 July snowfall 3.8  
Snow Depth -    
Sea Level Pressure  
Sea Level Pressure 30.16 in    
Wind  
Wind Speed 3 mph (SE)    
Max Wind Speed 12 mph    
Max Gust Speed -    
Visibility 10 miles    
Events      
T = Trace of Precipitation, MM = Missing Value Source: NWS Daily Summary

Daily Weather History Graph

Daily Weather History Graph

Search for Another Location

Airport:

Trip Planner

Search our weather history database for the weather conditions in past years. The results will help you decide how hot, cold, wet, or windy it might be!

Date:

Astronomy

Apr. 22, 2013 Rise Set
Actual Time 6:18 AM CDT 7:37 PM CDT
Civil Twilight 5:51 AM CDT 8:04 PM CDT
Nautical Twilight 5:20 AM CDT 8:35 PM CDT
Astronomical Twilight 4:47 AM CDT 9:08 PM CDT
Moon 4:33 PM CDT (4/22) 4:04 AM CDT (4/22)
Length of Visible Light 14h 12m
Length of Day
13h 19m
Waxing Gibbous, 88% of the Moon is Illuminated
Apr 22
Waxing Gibbous
Apr 25
Full
May 2
Last Quarter
May 9
New
May 17
First Quarter

Hourly Weather History & Observations

Time (CDT) Temp. Windchill Dew Point Humidity Pressure Visibility Wind Dir Wind Speed Gust Speed Precip Events Conditions
12:15 AM 51.8 °F - 39.2 °F 62% 30.22 in 10.0 mi Calm Calm - 0.00 in   Clear
12:35 AM 51.8 °F - 39.2 °F 62% 30.21 in 10.0 mi NE 5.8 mph - 0.00 in   Clear
12:55 AM 51.8 °F - 39.2 °F 62% 30.22 in 10.0 mi Calm Calm - 0.00 in   Clear
1:15 AM 50.0 °F - 39.2 °F 66% 30.21 in 10.0 mi Calm Calm - 0.00 in   Clear
1:35 AM 46.4 °F 45.2 °F 41.0 °F 81% 30.22 in 10.0 mi NE 3.5 mph - 0.00 in   Clear
1:55 AM 48.2 °F - 42.8 °F 82% 30.21 in 10.0 mi Calm Calm - 0.00 in   Clear
2:15 AM 48.2 °F - 42.8 °F 82% 30.21 in 10.0 mi NE 5.8 mph - 0.00 in   Clear
2:35 AM 46.4 °F - 42.8 °F 87% 30.20 in 10.0 mi Calm Calm - 0.00 in   Clear
2:55 AM 46.4 °F - 42.8 °F 87% 30.20 in 10.0 mi Calm Calm - 0.00 in   Clear
3:15 AM 48.2 °F - 42.8 °F 82% 30.20 in 10.0 mi Calm Calm - 0.00 in   Clear
3:35 AM 46.4 °F - 42.8 °F 87% 30.19 in 10.0 mi Calm Calm - 0.00 in   Clear
3:55 AM 46.4 °F - 42.8 °F 87% 30.19 in 10.0 mi Calm Calm - 0.00 in   Clear
4:15 AM 46.4 °F - 42.8 °F 87% 30.19 in 10.0 mi Calm Calm - 0.00 in   Clear
4:55 AM 46.4 °F - 42.8 °F 87% 30.19 in 10.0 mi Calm Calm - 0.00 in   Clear
5:15 AM 44.6 °F - 42.8 °F 93% 30.18 in 10.0 mi Calm Calm - 0.00 in   Clear
5:35 AM 44.6 °F - 42.8 °F 93% 30.18 in 9.0 mi Calm Calm - 0.00 in   Clear
5:55 AM 44.6 °F - 42.8 °F 93% 30.19 in 8.0 mi Calm Calm - 0.00 in   Clear
6:35 AM 44.6 °F - 42.8 °F 93% 30.19 in 10.0 mi Calm Calm - 0.00 in   Clear
6:50 AM 44.6 °F - 44.6 °F 100% 30.19 in 10.0 mi Calm Calm - N/A   Clear
6:55 AM 44.6 °F - 42.8 °F 93% 30.19 in 9.0 mi Calm Calm - 0.00 in   Clear
7:50 AM 50.0 °F - 46.4 °F 87% 30.20 in 10.0 mi ESE 5.8 mph - N/A   Clear
8:50 AM 57.2 °F - 48.2 °F 72% 30.21 in 10.0 mi SSE 9.2 mph - N/A   Clear
9:50 AM 62.6 °F - 46.4 °F 55% 30.21 in 10.0 mi SSE 11.5 mph - N/A   Clear
10:50 AM 66.2 °F - 48.2 °F 52% 30.21 in 10.0 mi South 11.5 mph - N/A   Clear
11:50 AM 69.8 °F - 66.2 °F 88% 30.19 in 10.0 mi SE 11.5 mph - N/A   Partly Cloudy
12:50 PM 69.8 °F - 48.2 °F 46% 30.18 in 10.0 mi SSE 10.4 mph - N/A   Scattered Clouds
1:50 PM 71.6 °F - 50.0 °F 46% 30.13 in 10.0 mi SSW 9.2 mph - N/A   Scattered Clouds
3:55 PM 71.6 °F - 48.2 °F 43% 30.08 in 10.0 mi SSE 11.5 mph - N/A   Mostly Cloudy
5:50 PM 71.6 °F - 48.2 °F 43% 30.06 in 10.0 mi SSE 8.1 mph - N/A   Mostly Cloudy
6:50 PM 68.0 °F - 48.2 °F 49% 30.05 in 10.0 mi SE 8.1 mph - N/A   Mostly Cloudy
9:15 PM 60.8 °F - 50.0 °F 68% 30.05 in 8.0 mi Calm Calm - 0.00 in   Clear
9:35 PM 60.8 °F - 51.8 °F 72% 30.06 in 10.0 mi ESE 3.5 mph - 0.00 in   Clear
9:55 PM 59.0 °F - 51.8 °F 77% 30.06 in 10.0 mi Calm Calm - 0.00 in   Clear
10:15 PM 57.2 °F - 51.8 °F 82% 30.07 in 10.0 mi Calm Calm - 0.00 in   Clear
10:35 PM 59.0 °F - 51.8 °F 77% 30.07 in 10.0 mi SE 5.8 mph - 0.00 in   Clear
10:55 PM 57.2 °F - 51.8 °F 82% 30.07 in 10.0 mi ESE 5.8 mph - 0.00 in   Clear
11:15 PM 57.2 °F - 51.8 °F 82% 30.07 in 9.0 mi ESE 5.8 mph - 0.00 in   Clear
11:35 PM 57.2 °F - 51.8 °F 82% 30.06 in 10.0 mi SE 5.8 mph - 0.00 in   Clear
11:55 PM 57.2 °F - 51.8 °F 82% 30.07 in 10.0 mi ESE 4.6 mph - 0.00 in   Clear